#timestamp,LO_Frequency,Hit,StdDev 
1558483215.4,286046997.1,N
1558483235.2,286046996.6,N
1558483255.1,286046998.8,N
1558483256.0,286046998.8,N
1558483275.8,286047000.0,N
1558483295.7,286047002.6,N
1558483315.5,286046999.3,N
1558483335.3,286046998.7,N
1558483355.2,286047000.2,N
1558483375.0,286046998.2,N
1558483375.9,286046998.2,N
1558483395.8,286046999.2,N
1558483415.6,286046996.6,N
1558483435.4,286046997.8,N
1558483455.3,286046996.6,N
1558483475.1,286047001.1,N
1558483495.8,286046998.8,N
1558483515.7,286046997.3,N
1558483535.5,286046999.4,N
1558483555.4,286046997.8,N
1558483575.2,286046995.4,Y
1558483595.0,286046998.3,P
1558483595.9,286046998.3,P
1558483615.8,286047001.4,P
1558483635.6,286047002.0,N
1558483655.4,286047001.5,N
1558483675.3,286046999.8,N
1558483695.1,286047001.0,N
1558483715.9,286047002.6,N
1558483735.7,286047004.1,N
1558483755.5,286047001.5,N
1558483775.4,286047001.6,N
1558483795.2,286047002.0,N
1558483815.0,286047002.0,N
1558483815.9,286047002.0,N
1558483835.8,286046999.9,N
1558483855.6,286046999.8,N
1558483875.5,286046998.5,N
1558483895.3,286046999.6,N
1558483915.1,286046997.0,N
1558483935.9,286047000.3,N
1558483955.7,286047000.1,N
1558483975.5,286047001.2,N
1558483995.4,286047001.5,N
1558484015.2,286047005.6,Y
1558484035.1,286047003.4,P
1558484036.0,286047003.4,N
1558484055.8,286047000.1,N
1558484075.6,286047004.4,N
1558484095.5,286047001.2,N
1558484115.3,286047000.4,N
1558484135.1,286046998.6,N
1558484155.9,286046998.2,N
1558484175.7,286046998.3,N
1558484195.6,286047000.8,N
1558484215.4,286047002.6,N
1558484235.2,286047002.7,N
1558484255.1,286047003.6,N
1558484256.0,286047003.6,N
1558484275.8,286047002.5,N
1558484295.7,286047000.7,N
1558484315.5,286046999.8,N
1558484335.3,286047004.2,N
1558484355.2,286047003.3,N
1558484375.0,286047003.9,N
1558484375.9,286047003.9,N
1558484395.8,286047003.0,N
1558484415.6,286047003.0,N
1558484435.4,286047005.8,Y
1558484455.3,286047004.4,P
1558484475.1,286047002.5,N
1558484495.8,286047003.9,P
1558484515.7,286047005.9,Y
1558484535.5,286047002.2,P
1558484555.4,286046999.7,N
1558484575.2,286047000.7,N
1558484595.0,286047001.0,N
1558484595.9,286047001.0,N
1558484615.8,286047000.6,N
1558484635.6,286047000.3,N
1558484655.5,286047002.5,N
1558484675.3,286047000.2,N
1558484695.1,286047000.9,N
1558484715.9,286046998.3,N
1558484735.7,286046998.8,N
1558484755.5,286046999.6,N
1558484775.4,286046999.1,N
1558484795.2,286046994.9,Y
1558484815.1,286046995.3,P
1558484816.0,286046995.3,N
1558484835.8,286046995.4,N
1558484855.6,286046995.1,N
1558484875.5,286046996.7,N
1558484895.3,286046998.9,N
1558484915.2,286046998.5,N
1558484935.9,286046999.5,N
1558484955.7,286047001.2,N
1558484975.6,286046999.0,N
1558484995.4,286046995.4,N
1558485015.2,286046993.8,N
1558485035.1,286046992.2,Y
1558485036.0,286046992.2,P
1558485055.8,286046997.1,N
1558485075.7,286046999.0,N
1558485095.5,286046999.5,N
1558485115.3,286046998.7,N
1558485135.2,286046998.1,N
1558485155.0,286046999.3,N
1558485155.9,286046999.3,N
1558485175.8,286047001.0,N
1558485195.6,286047002.5,N
1558485245.5,286047000.5,E
1558485255.4,286046998.5,N
1558485275.2,286046999.0,P
1558485295.1,286046999.1,P
1558485296.0,286046999.1,Y
1558485315.8,286046999.5,P
1558485335.6,286046998.6,P
1558485355.5,286046999.7,N
1558485375.3,286047000.6,N
1558485395.2,286046998.9,N
1558485415.9,286046997.0,Y
1558485435.7,286046998.1,P
1558485455.6,286046997.3,P
1558485475.4,286046997.1,P
1558485495.2,286046998.2,N
1558485515.1,286046997.6,Y
1558485516.0,286046997.6,P
1558485535.8,286046999.8,N
1558485555.7,286047000.7,N
1558485575.5,286047002.6,N
1558485595.3,286047001.2,N
1558485615.2,286046996.5,N
1558485635.0,286046997.3,N
1558485635.9,286046997.3,N
1558485655.8,286046997.9,N
1558485675.6,286046995.4,N
1558485695.4,286046995.2,N
1558485715.3,286046996.7,N
1558485735.1,286046998.4,N
1558485755.8,286046997.7,N
1558485775.7,286046997.8,N
1558485795.5,286046995.5,N
1558485815.3,286046996.4,N
1558485835.2,286046994.5,N
1558485855.0,286046991.9,Y
1558485855.9,286046991.9,P
1558485875.8,286046996.0,N
1558485895.6,286046995.8,N
1558485915.4,286046996.6,N
1558485935.3,286046996.8,N
1558485955.1,286046998.1,N
1558485975.9,286046999.9,N
1558485995.7,286046998.3,N
1558486015.5,286046999.3,N
1558486035.4,286046998.6,N
1558486055.2,286047001.0,N
1558486075.0,286046999.7,N
1558486076.0,286046999.7,N
1558486095.8,286047001.6,N
1558486115.6,286047002.3,N
1558486135.5,286047000.6,N
1558486155.3,286047001.5,N
1558486175.1,286047000.0,N
1558486195.9,286046999.8,N
1558486215.7,286047000.1,N
1558486235.5,286047000.7,N
1558486255.4,286046998.4,N
1558486275.2,286046999.3,N
1558486295.1,286046998.7,N
1558486296.0,286046998.7,N
1558486315.8,286047000.0,N
1558486335.6,286047001.0,N
1558486355.5,286047002.3,N
1558486375.3,286047000.0,N
1558486395.1,286046999.7,N
1558486415.9,286047002.5,N
1558486435.7,286047001.5,N
1558486455.6,286047004.4,N
1558486475.4,286047000.2,N
1558486495.2,286047000.0,N
1558486515.1,286047002.3,N
1558486516.0,286047002.3,N
1558486535.8,286046999.7,N
1558486555.7,286046999.3,N
1558486575.5,286046999.1,N
1558486595.3,286046998.8,N
1558486615.2,286046999.9,N
1558486635.9,286046998.8,N
1558486655.7,286047001.0,N
1558486675.6,286046998.2,N
1558486695.4,286046998.5,N
1558486715.2,286047001.1,N
1558486735.1,286046999.5,N
1558486736.0,286046999.5,N
1558486755.8,286046999.3,N
1558486775.7,286047000.8,N
1558486795.5,286047002.5,N
